Location: Namasale
(1.5000°N, 32.6167°E)
Time: 23:17:57
(UTC+00:00)

Transit 2A - Pass Details

Date: 24 April 2021
Orbit: 602 x 957 km, 66.7° (Epoch: 11 May)

Event Time Altitude Azimuth Distance (km) Brightness Sun altitude
Rises 14:28:54 0° 332° (NNW) 3,068 9.7 19.5°
Reaches altitude 10° 14:31:09 10° 328° (NNW) 2,203 9.2 19.0°
Maximum altitude 14:36:06 57° 250° (WSW) 906 7.2 17.8°
Drops below altitude 10° 14:41:37 10° 172° (S) 2,448 8.5 16.4°
Sets 14:44:14 0° 168° (SSE) 3,440 9.1 15.8°
